START_TIME,STEP,MOV.,M6,t_acc.,M7,t_acc.,M19,t_acc.,H36,t_acc.
1979-07-03 15:22:13.560 ,0,0,,0,,0,,0,,0
1979-07-03 15:22:25.560 ,0,0,0.,12.0,0.,12.0,0.,12.0,0.,12.0
1979-07-03 15:22:27.960 ,2,1,0.,12.0,0.,12.0,0.,12.0,0.,12.0
1979-07-03 15:22:39.960 ,2,1,0.,12.0,0.,12.0,0.,12.0,0.,12.0
1979-07-03 15:22:51.960 ,2,0,0.,12.0,0.,12.0,0.,12.0,0.,12.0
1979-07-03 15:23:03.960 ,2,0,0.,12.0,0.,12.0,0.,12.0,0.,12.0
1979-07-03 15:23:15.960 ,0,0,,0,,0,,0,,0
1979-07-03 15:23:27.960 ,0,0,,0,,0,,0,,0
1979-07-03 15:23:39.960 ,0,0,,0,,0,,0,,0
1979-07-03 15:23:51.960 ,0,0,,0,,0,,0,,0
1979-07-03 15:24:09.960 ,0,0,,0,,0,,0,,0
1979-07-03 15:24:21.960 ,0,0,0.,12.0,0.,12.0,0.,12.0,0.,12.0
1979-07-03 15:24:27.960 ,0,0,0.,12.0,0.,12.0,0.,12.0,0.,12.0
1979-07-03 15:24:39.960 ,0,0,0.,12.0,0.,12.0,0.,12.0,0.,12.0
1979-07-03 15:24:51.960 ,0,1,0.,12.0,0.,12.0,0.,12.0,0.,12.0
1979-07-03 15:25:03.960 ,0,1,0.,12.0,0.,12.0,0.,12.0,0.,12.0
1979-07-03 15:25:15.960 ,0,0,0.,12.0,0.,12.0,0.,12.0,0.,12.0
1979-07-03 15:25:27.960 ,0,0,0.,12.0,0.,12.0,0.,12.0,0.,12.0
1979-07-03 15:25:39.960 ,1,1,0.,12.0,0.,12.0,0.,12.0,0.,12.0
1979-07-03 15:25:51.960 ,1,1,0.,12.0,0.,12.0,0.,12.0,0.,12.0
1979-07-03 15:26:03.960 ,1,0,0.,12.0,0.,12.0,0.,12.0,0.,12.0
1979-07-03 15:26:15.960 ,1,0,0.,12.0,0.,12.0,0.,12.0,0.,12.0
1979-07-03 15:26:27.960 ,2,1,0.,12.0,0.,12.0,0.,12.0,0.,12.0
1979-07-03 15:26:39.960 ,2,1,0.,12.0,0.,12.0,0.,12.0,0.,12.0
1979-07-03 15:26:51.960 ,2,0,0.,12.0,0.,12.0,0.,12.0,0.,12.0
1979-07-03 15:27:03.960 ,2,0,0.,12.0,0.,12.0,0.,12.0,0.,12.0
1979-07-03 15:27:15.960 ,3,1,0.,12.0,0.,12.0,0.,12.0,0.,12.0
1979-07-03 15:27:27.960 ,3,1,0.,12.0,0.,12.0,0.,12.0,0.,12.0
1979-07-03 15:27:39.960 ,3,0,0.,12.0,0.,12.0,0.,12.0,0.,12.0
1979-07-03 15:27:51.960 ,3,0,0.,12.0,0.,12.0,0.,12.0,0.,12.0
1979-07-03 15:28:03.960 ,4,1,0.,12.0,0.,12.0,0.,12.0,0.,12.0
1979-07-03 15:28:15.960 ,4,1,0.,12.0,0.,12.0,0.,12.0,0.,12.0
1979-07-03 15:28:27.960 ,4,0,0.,12.0,0.,12.0,0.,12.0,0.,12.0
1979-07-03 15:28:39.960 ,4,0,0.,12.0,0.,12.0,0.,12.0,0.,12.0
1979-07-03 15:28:51.960 ,5,1,0.,12.0,0.,12.0,0.,12.0,0.,12.0
1979-07-03 15:29:03.960 ,5,1,0.,12.0,0.,12.0,0.,12.0,0.,12.0
1979-07-03 15:29:15.960 ,5,0,0.,12.0,0.,12.0,0.,12.0,0.,12.0
1979-07-03 15:29:27.960 ,5,0,0.,12.0,0.,12.0,0.,12.0,0.,12.0
1979-07-03 15:29:39.960 ,6,1,0.,12.0,0.,12.0,0.,12.0,0.,12.0
1979-07-03 15:29:51.960 ,6,1,0.,12.0,0.,12.0,0.,12.0,0.,12.0
1979-07-03 15:30:03.960 ,6,0,0.,12.0,0.,12.0,0.,12.0,0.,12.0
1979-07-03 15:30:15.960 ,6,0,0.,12.0,0.,12.0,0.,12.0,0.,12.0
1979-07-03 15:30:27.960 ,7,0,0.,12.0,0.,12.0,0.,12.0,0.,12.0
1979-07-03 15:30:39.960 ,7,0,0.,12.0,0.,12.0,0.,12.0,0.,12.0
1979-07-03 15:30:51.960 ,7,0,0.,12.0,0.,12.0,0.,12.0,0.,12.0
1979-07-03 15:31:03.960 ,7,0,0.,12.0,0.,12.0,0.,12.0,0.,12.0
1979-07-03 15:31:15.960 ,4,1,0.,12.0,0.,12.0,0.,12.0,0.,12.0
1979-07-03 15:31:27.960 ,4,1,0.,12.0,0.,12.0,0.,12.0,0.,12.0
1979-07-03 15:31:39.960 ,0,1,0.,12.0,0.,12.0,0.,12.0,0.,12.0
1979-07-03 15:31:51.960 ,0,1,0.,12.0,0.,12.0,0.,12.0,0.,12.0
1979-07-03 15:32:03.960 ,3,1,0.,12.0,0.,12.0,0.,12.0,0.,12.0
1979-07-03 15:32:15.960 ,3,1,0.,12.0,0.,12.0,0.,12.0,0.,12.0
1979-07-03 15:32:27.960 ,7,1,0.,12.0,0.,12.0,0.,12.0,0.,12.0
1979-07-03 15:32:39.960 ,7,1,0.,12.0,0.,12.0,0.,12.0,0.,12.0
1979-07-03 15:32:51.960 ,4,1,0.,12.0,0.,12.0,0.,12.0,0.,12.0
1979-07-03 15:33:03.960 ,4,1,0.,12.0,0.,12.0,0.,12.0,0.,12.0
1979-07-03 15:33:15.960 ,0,1,0.,12.0,0.,12.0,0.,12.0,0.,12.0
1979-07-03 15:33:27.960 ,0,1,0.,12.0,0.,12.0,0.,12.0,0.,12.0
1979-07-03 15:33:39.960 ,3,1,0.,12.0,0.,12.0,0.,12.0,0.,12.0
1979-07-03 15:33:51.960 ,3,1,0.,12.0,0.,12.0,0.,12.0,0.,12.0
1979-07-03 15:34:03.960 ,7,1,0.,12.0,0.,12.0,0.,12.0,0.,12.0
1979-07-03 15:34:15.960 ,7,1,0.,12.0,0.,12.0,0.,12.0,0.,12.0
1979-07-03 15:34:27.960 ,4,1,0.,12.0,0.,12.0,0.,12.0,0.,12.0
1979-07-03 15:34:39.960 ,4,1,0.,12.0,0.,12.0,0.,12.0,0.,12.0
1979-07-03 15:34:51.960 ,0,1,0.,12.0,0.,12.0,0.,12.0,0.,12.0
1979-07-03 15:35:03.960 ,0,1,0.,12.0,0.,12.0,0.,12.0,0.,12.0
1979-07-03 15:35:15.960 ,3,1,0.,12.0,0.,12.0,0.,12.0,0.,12.0
1979-07-03 15:35:27.960 ,3,1,0.,12.0,0.,12.0,0.,12.0,0.,12.0
1979-07-03 15:35:39.960 ,7,1,0.,12.0,0.,12.0,0.,12.0,0.,12.0
1979-07-03 15:35:51.960 ,7,1,0.,12.0,0.,12.0,0.,12.0,0.,12.0
1979-07-03 15:36:03.960 ,4,1,0.,12.0,0.,12.0,0.,12.0,0.,12.0
1979-07-03 15:36:15.960 ,4,1,0.,12.0,0.,12.0,0.,12.0,0.,12.0
1979-07-03 15:36:27.960 ,0,1,0.,12.0,0.,12.0,0.,12.0,0.,12.0
1979-07-03 15:36:39.960 ,0,1,0.,12.0,0.,12.0,0.,12.0,0.,12.0
1979-07-03 15:36:51.960 ,3,1,0.,12.0,0.,12.0,0.,12.0,0.,12.0
1979-07-03 15:37:03.960 ,3,1,0.,12.0,0.,12.0,0.,12.0,0.,12.0
1979-07-03 15:37:15.960 ,7,1,0.,12.0,0.,12.0,0.,12.0,0.,12.0
1979-07-03 15:37:27.960 ,7,1,0.,12.0,0.,12.0,0.,12.0,0.,12.0
1979-07-03 15:37:39.960 ,4,1,0.,12.0,0.,12.0,0.,12.0,0.,12.0
1979-07-03 15:37:51.960 ,4,1,0.,12.0,0.,12.0,0.,12.0,0.,12.0
1979-07-03 15:38:03.960 ,0,1,0.,12.0,0.,12.0,0.,12.0,0.,12.0
1979-07-03 15:38:15.960 ,0,1,0.,12.0,0.,12.0,0.,12.0,0.,12.0
1979-07-03 15:38:27.960 ,3,1,0.,12.0,0.,12.0,0.,12.0,0.,12.0
1979-07-03 15:38:39.960 ,3,1,0.,12.0,0.,12.0,0.,12.0,0.,12.0
1979-07-03 15:38:51.960 ,7,1,0.,12.0,0.,12.0,0.,12.0,0.,12.0
1979-07-03 15:39:03.960 ,7,1,0.,12.0,0.,12.0,0.,12.0,0.,12.0
1979-07-03 15:39:15.960 ,4,1,0.,12.0,0.,12.0,0.,12.0,0.,12.0
1979-07-03 15:39:27.960 ,4,1,0.,12.0,0.,12.0,0.,12.0,0.,12.0
1979-07-03 15:39:39.960 ,0,1,0.,12.0,0.,12.0,0.,12.0,0.,12.0
1979-07-03 15:39:51.960 ,0,1,0.,12.0,0.,12.0,0.,12.0,0.,12.0
1979-07-03 15:40:03.960 ,3,1,0.,12.0,0.,12.0,0.,12.0,0.,12.0
1979-07-03 15:40:15.960 ,3,1,0.,12.0,0.,12.0,0.,12.0,0.,12.0
1979-07-03 15:40:27.960 ,7,1,0.,12.0,0.,12.0,0.,12.0,0.,12.0
1979-07-03 15:40:39.960 ,7,1,0.,12.0,0.,12.0,0.,12.0,0.,12.0
1979-07-03 15:40:51.960 ,4,1,0.,12.0,0.,12.0,0.,12.0,0.,12.0
1979-07-03 15:41:03.960 ,4,1,0.,12.0,0.,12.0,0.,12.0,0.,12.0
1979-07-03 15:41:15.960 ,0,1,0.,12.0,0.,12.0,0.,12.0,0.,12.0
1979-07-03 15:41:27.960 ,0,1,0.,12.0,0.,12.0,0.,12.0,0.,12.0
1979-07-03 15:41:39.960 ,0,0,0.,12.0,0.,12.0,0.,12.0,0.,12.0
1979-07-03 15:41:51.960 ,0,0,0.,12.0,0.,12.0,0.,12.0,0.,12.0
1979-07-03 15:42:03.960 ,0,0,0.,12.0,0.,12.0,0.,12.0,0.,12.0
1979-07-03 15:42:15.960 ,0,0,0.,12.0,0.,12.0,0.,12.0,0.,12.0
1979-07-03 15:42:27.960 ,5,1,0.,12.0,0.,12.0,0.,12.0,0.,12.0
1979-07-03 15:42:39.960 ,5,1,0.,12.0,0.,12.0,0.,12.0,0.,12.0
1979-07-03 15:42:51.960 ,5,0,0.,12.0,0.,12.0,0.,12.0,0.,12.0
1979-07-03 15:43:03.960 ,5,0,0.,12.0,0.,12.0,0.,12.0,0.,12.0
1979-07-03 15:43:15.960 ,4,1,0.,12.0,0.,12.0,0.,12.0,0.,12.0
1979-07-03 15:43:27.960 ,4,1,0.,12.0,0.,12.0,0.,12.0,0.,12.0
1979-07-03 15:43:39.960 ,4,0,0.,12.0,0.,12.0,0.,12.0,0.,12.0
1979-07-03 15:43:51.960 ,4,0,0.,12.0,0.,12.0,0.,12.0,0.,12.0
1979-07-03 15:44:03.960 ,3,1,0.,12.0,0.,12.0,0.,12.0,0.,12.0
1979-07-03 15:44:15.960 ,3,1,0.,12.0,0.,12.0,0.,12.0,0.,12.0
1979-07-03 15:44:27.960 ,3,0,0.,12.0,0.,12.0,0.,12.0,0.,12.0
1979-07-03 15:44:39.960 ,3,0,0.,12.0,0.,12.0,0.,12.0,0.,12.0
1979-07-03 15:44:51.960 ,2,1,0.,12.0,0.,12.0,0.,12.0,0.,12.0
1979-07-03 15:45:03.960 ,2,1,0.,12.0,0.,12.0,0.,12.0,0.,12.0
1979-07-03 15:45:15.960 ,2,0,0.,12.0,0.,12.0,0.,12.0,0.,12.0
1979-07-03 15:45:27.960 ,2,0,0.,12.0,0.,12.0,0.,12.0,0.,12.0
1979-07-03 15:45:39.960 ,1,1,0.,12.0,0.,12.0,0.,12.0,0.,12.0
1979-07-03 15:45:51.960 ,1,1,0.,12.0,0.,12.0,0.,12.0,0.,12.0
1979-07-03 15:46:03.960 ,1,0,0.,12.0,0.,12.0,0.,12.0,0.,12.0
1979-07-03 15:46:15.960 ,1,0,0.,12.0,0.,12.0,0.,12.0,0.,12.0
1979-07-03 15:46:27.960 ,0,1,0.,12.0,0.,12.0,0.,12.0,0.,12.0
1979-07-03 15:46:39.960 ,0,1,0.,12.0,0.,12.0,0.,12.0,0.,12.0
1979-07-03 15:46:51.960 ,0,0,0.,12.0,0.,12.0,0.,12.0,0.,12.0
1979-07-03 15:47:03.960 ,0,0,0.,12.0,0.,12.0,0.,12.0,0.,12.0
1979-07-03 15:47:15.960 ,0,1,0.,12.0,0.,12.0,0.,12.0,0.,12.0
1979-07-03 15:47:27.960 ,0,1,0.,12.0,0.,12.0,0.,12.0,0.,12.0
1979-07-03 15:47:39.960 ,0,0,0.,12.0,0.,12.0,0.,12.0,0.,12.0
1979-07-03 15:47:51.960 ,0,0,0.,12.0,0.,12.0,0.,12.0,0.,12.0
1979-07-03 15:48:03.960 ,1,1,0.,12.0,0.,12.0,0.,12.0,0.,12.0
1979-07-03 15:48:15.960 ,1,1,0.,12.0,0.,12.0,0.,12.0,0.,12.0
1979-07-03 15:48:27.960 ,1,0,0.,12.0,0.,12.0,0.,12.0,0.,12.0
1979-07-03 15:48:39.960 ,1,0,0.,12.0,0.,12.0,0.,12.0,0.,12.0
1979-07-03 15:48:51.960 ,2,1,0.,12.0,0.,12.0,0.,12.0,0.,12.0
1979-07-03 15:49:03.960 ,2,1,0.,12.0,0.,12.0,0.,12.0,0.,12.0
1979-07-03 15:49:15.960 ,2,0,0.,12.0,0.,12.0,0.,12.0,0.,12.0
1979-07-03 15:49:27.960 ,2,0,0.,12.0,0.,12.0,0.,12.0,0.,12.0
1979-07-03 15:49:39.960 ,3,1,0.,12.0,0.,12.0,0.,12.0,0.,12.0
1979-07-03 15:49:51.960 ,3,1,0.,12.0,0.,12.0,0.,12.0,0.,12.0
1979-07-03 15:50:03.960 ,3,0,0.,12.0,0.,12.0,0.,12.0,0.,12.0
1979-07-03 15:50:15.960 ,3,0,0.,12.0,0.,12.0,0.,12.0,0.,12.0
1979-07-03 15:50:27.960 ,4,1,0.,12.0,0.,12.0,0.,12.0,0.,12.0
1979-07-03 15:50:39.960 ,4,1,0.,12.0,0.,12.0,0.,12.0,0.,12.0
1979-07-03 15:50:51.960 ,4,0,0.,12.0,0.,12.0,0.,12.0,0.,12.0
1979-07-03 15:51:03.960 ,4,0,0.,12.0,0.,12.0,0.,12.0,0.,12.0
1979-07-03 15:51:15.960 ,5,1,0.,12.0,0.,12.0,0.,12.0,0.,12.0
1979-07-03 15:51:27.960 ,5,1,0.,12.0,0.,12.0,0.,12.0,0.,12.0
1979-07-03 15:51:39.960 ,5,0,0.,12.0,0.,12.0,0.,12.0,0.,12.0
1979-07-03 15:51:51.960 ,5,0,0.,12.0,0.,12.0,0.,12.0,0.,12.0
1979-07-03 15:52:03.960 ,6,1,0.,12.0,0.,12.0,0.,12.0,0.,12.0
1979-07-03 15:52:15.960 ,6,1,0.,12.0,0.,12.0,0.,12.0,0.,12.0
1979-07-03 15:52:27.960 ,6,0,0.,12.0,0.,12.0,0.,12.0,0.,12.0
1979-07-03 15:52:39.960 ,6,0,0.,12.0,0.,12.0,0.,12.0,0.,12.0
1979-07-03 15:52:51.960 ,7,1,0.,12.0,0.,12.0,0.,12.0,0.,12.0
1979-07-03 15:53:03.960 ,7,1,0.,12.0,0.,12.0,0.,12.0,0.,12.0
1979-07-03 15:53:15.960 ,7,0,0.,12.0,0.,12.0,0.,12.0,0.,12.0
1979-07-03 15:53:27.960 ,7,0,0.,12.0,0.,12.0,0.,12.0,0.,12.0
1979-07-03 15:53:39.960 ,7,1,0.,12.0,0.,12.0,0.,12.0,0.,12.0
1979-07-03 15:53:51.960 ,7,1,0.,12.0,0.,12.0,0.,12.0,0.,12.0
1979-07-03 15:54:03.960 ,7,0,0.,12.0,0.,12.0,0.,12.0,0.,12.0
1979-07-03 15:54:15.960 ,7,0,0.,12.0,0.,12.0,0.,12.0,0.,12.0
1979-07-03 15:54:27.960 ,6,1,0.,12.0,0.,12.0,0.,12.0,0.,12.0
1979-07-03 15:54:39.960 ,6,1,0.,12.0,0.,12.0,0.,12.0,0.,12.0
1979-07-03 15:54:51.960 ,6,0,0.,12.0,0.,12.0,0.,12.0,0.,12.0
1979-07-03 15:55:03.960 ,6,0,0.,12.0,0.,12.0,0.,12.0,0.,12.0
1979-07-03 15:55:15.960 ,5,1,0.,12.0,0.,12.0,0.,12.0,0.,12.0
1979-07-03 15:55:27.960 ,5,1,0.,12.0,0.,12.0,0.,12.0,0.,12.0
1979-07-03 15:55:39.960 ,5,0,0.,12.0,0.,12.0,0.,12.0,0.,12.0
1979-07-03 15:55:51.960 ,5,0,0.,12.0,0.,12.0,0.,12.0,0.,12.0
1979-07-03 15:56:03.960 ,4,1,0.,12.0,0.,12.0,0.,12.0,0.,12.0
1979-07-03 15:56:15.960 ,4,1,0.,12.0,0.,12.0,0.,12.0,0.,12.0
1979-07-03 15:56:27.960 ,4,0,0.,12.0,0.,12.0,0.,12.0,0.,12.0
1979-07-03 15:56:39.960 ,4,0,0.,12.0,0.,12.0,0.,12.0,0.,12.0
1979-07-03 15:56:51.960 ,3,1,0.,12.0,0.,12.0,0.,12.0,0.,12.0
1979-07-03 15:57:03.960 ,3,1,0.,12.0,0.,12.0,0.,12.0,0.,12.0
1979-07-03 15:57:15.960 ,3,0,0.,12.0,0.,12.0,0.,12.0,0.,12.0
1979-07-03 15:57:27.960 ,3,0,0.,12.0,0.,12.0,0.,12.0,0.,12.0
1979-07-03 15:57:39.960 ,2,1,0.,12.0,0.,12.0,0.,12.0,0.,12.0
1979-07-03 15:57:51.960 ,2,1,0.,12.0,0.,12.0,0.,12.0,0.,12.0
1979-07-03 15:58:03.960 ,2,0,0.,12.0,0.,12.0,0.,12.0,0.,12.0
1979-07-03 15:58:15.960 ,2,0,0.,12.0,0.,12.0,0.,12.0,0.,12.0
1979-07-03 15:58:27.960 ,1,1,0.,12.0,0.,12.0,0.,12.0,0.,12.0
1979-07-03 15:58:39.960 ,1,1,0.,12.0,0.,12.0,0.,12.0,0.,12.0
1979-07-03 15:58:51.960 ,1,0,0.,12.0,0.,12.0,0.,12.0,0.,12.0
1979-07-03 15:59:03.960 ,1,0,0.,12.0,0.,12.0,0.,12.0,0.,12.0
1979-07-03 15:59:15.960 ,0,1,0.,12.0,0.,12.0,0.,12.0,0.,12.0
1979-07-03 15:59:27.960 ,0,1,0.,12.0,0.,12.0,0.,12.0,0.,12.0
1979-07-03 15:59:39.960 ,0,0,0.,12.0,0.,12.0,0.,12.0,0.,12.0
1979-07-03 15:59:51.960 ,0,0,0.,12.0,0.,12.0,0.,12.0,0.,12.0
1979-07-03 16:00:03.950 ,0,1,0.,12.0,0.,12.0,0.,12.0,0.,12.0
1979-07-03 16:00:15.950 ,0,1,0.,12.0,0.,12.0,0.,12.0,0.,12.0
1979-07-03 16:00:27.960 ,0,0,0.,12.0,0.,12.0,0.,12.0,0.,12.0
1979-07-03 16:00:39.960 ,0,0,0.,12.0,0.,12.0,0.,12.0,0.,12.0
1979-07-03 16:00:51.950 ,1,1,0.,12.0,0.,12.0,0.,12.0,0.,12.0
1979-07-03 16:01:03.950 ,1,1,0.,12.0,0.,12.0,0.,12.0,0.,12.0
1979-07-03 16:01:15.950 ,1,0,0.,12.0,0.,12.0,0.,12.0,0.,12.0
1979-07-03 16:01:27.950 ,1,0,0.,12.0,0.,12.0,0.,12.0,0.,12.0
1979-07-03 16:01:39.950 ,2,1,0.,12.0,0.,12.0,0.,12.0,0.,12.0
1979-07-03 16:01:51.950 ,2,1,0.,12.0,0.,12.0,0.,12.0,0.,12.0
1979-07-03 16:02:03.950 ,2,0,0.,12.0,0.,12.0,0.,12.0,0.,12.0
1979-07-03 16:02:15.950 ,2,0,0.,12.0,0.,12.0,0.,12.0,0.,12.0
1979-07-03 16:02:27.950 ,3,1,0.,12.0,0.,12.0,0.,12.0,0.,12.0
1979-07-03 16:02:39.950 ,3,1,0.,12.0,0.,12.0,0.,12.0,0.,12.0
1979-07-03 16:02:51.950 ,3,0,0.,12.0,0.,12.0,0.,12.0,0.,12.0
1979-07-03 16:03:03.950 ,3,0,0.,12.0,0.,12.0,0.,12.0,0.,12.0
1979-07-03 16:03:15.950 ,4,1,0.,12.0,0.,12.0,0.,12.0,0.,12.0
1979-07-03 16:03:27.950 ,4,1,0.,12.0,0.,12.0,0.,12.0,0.,12.0
1979-07-03 16:03:39.950 ,4,0,0.,12.0,0.,12.0,0.,12.0,0.,12.0
1979-07-03 16:03:51.950 ,4,0,0.,12.0,0.,12.0,0.,12.0,0.,12.0
1979-07-03 16:04:03.950 ,5,1,0.,12.0,0.,12.0,0.,12.0,0.,12.0
1979-07-03 16:04:15.950 ,5,1,0.,12.0,0.,12.0,0.,12.0,0.,12.0
1979-07-03 16:04:27.950 ,5,0,0.,12.0,0.,12.0,0.,12.0,0.,12.0
1979-07-03 16:04:39.950 ,5,0,0.,12.0,0.,12.0,0.,12.0,0.,12.0
1979-07-03 16:04:51.950 ,6,1,0.,12.0,0.,12.0,0.,12.0,0.,12.0
1979-07-03 16:05:03.950 ,6,1,0.,12.0,0.,12.0,0.,12.0,0.,12.0
1979-07-03 16:05:15.950 ,6,0,0.,12.0,0.,12.0,0.,12.0,0.,12.0
1979-07-03 16:05:27.950 ,6,0,0.,12.0,0.,12.0,0.,12.0,0.,12.0
1979-07-03 16:05:39.950 ,7,1,0.,12.0,0.,12.0,0.,12.0,0.,12.0
1979-07-03 16:05:51.950 ,7,1,0.,12.0,0.,12.0,0.,12.0,0.,12.0
1979-07-03 16:06:03.950 ,7,0,0.,12.0,0.,12.0,0.,12.0,0.,12.0
1979-07-03 16:06:15.950 ,7,0,0.,12.0,0.,12.0,0.,12.0,0.,12.0
1979-07-03 16:06:27.950 ,7,1,0.,12.0,0.,12.0,0.,12.0,0.,12.0
1979-07-03 16:06:39.950 ,7,1,0.,12.0,0.,12.0,0.,12.0,0.,12.0
1979-07-03 16:06:51.950 ,7,0,0.,12.0,0.,12.0,0.,12.0,0.,12.0
1979-07-03 16:07:03.950 ,7,0,0.,12.0,0.,12.0,0.,12.0,0.,12.0
1979-07-03 16:07:15.950 ,6,1,0.,12.0,0.,12.0,0.,12.0,0.,12.0
1979-07-03 16:07:27.950 ,6,1,0.,12.0,0.,12.0,0.,12.0,0.,12.0
1979-07-03 16:07:39.950 ,6,0,0.,12.0,0.,12.0,0.,12.0,0.,12.0
1979-07-03 16:07:51.950 ,6,0,0.,12.0,0.,12.0,0.,12.0,0.,12.0
1979-07-03 16:08:03.950 ,5,1,0.,12.0,0.,12.0,0.,12.0,0.,12.0
1979-07-03 16:08:15.950 ,5,1,0.,12.0,0.,12.0,0.,12.0,0.,12.0
1979-07-03 16:08:27.950 ,5,0,0.,12.0,0.,12.0,0.,12.0,0.,12.0
1979-07-03 16:08:39.950 ,5,0,0.,12.0,0.,12.0,0.,12.0,0.,12.0
1979-07-03 16:08:51.950 ,4,1,0.,12.0,0.,12.0,0.,12.0,0.,12.0
1979-07-03 16:09:03.950 ,4,1,0.,12.0,0.,12.0,0.,12.0,0.,12.0
1979-07-03 16:09:15.950 ,4,0,0.,12.0,0.,12.0,0.,12.0,0.,12.0
1979-07-03 16:09:27.950 ,4,0,0.,12.0,0.,12.0,0.,12.0,0.,12.0
1979-07-03 16:09:39.950 ,3,1,0.,12.0,0.,12.0,0.,12.0,0.,12.0
1979-07-03 16:09:51.950 ,3,1,0.,12.0,0.,12.0,0.,12.0,0.,12.0
1979-07-03 16:10:03.950 ,3,0,0.,12.0,0.,12.0,0.,12.0,0.,12.0
1979-07-03 16:10:15.950 ,3,0,0.,12.0,0.,12.0,0.,12.0,0.,12.0
1979-07-03 16:10:27.950 ,2,1,0.,12.0,0.,12.0,0.,12.0,0.,12.0
1979-07-03 16:10:39.950 ,2,1,0.,12.0,0.,12.0,0.,12.0,0.,12.0
1979-07-03 16:10:51.950 ,2,0,0.,12.0,0.,12.0,0.,12.0,0.,12.0
1979-07-03 16:11:03.950 ,2,0,0.,12.0,0.,12.0,0.,12.0,0.,12.0
1979-07-03 16:11:15.950 ,1,1,0.,12.0,0.,12.0,0.,12.0,0.,12.0
1979-07-03 16:11:27.950 ,1,1,0.,12.0,0.,12.0,0.,12.0,0.,12.0
1979-07-03 16:11:39.950 ,1,0,0.,12.0,0.,12.0,0.,12.0,0.,12.0
1979-07-03 16:11:51.950 ,1,0,0.,12.0,0.,12.0,0.,12.0,0.,12.0
1979-07-03 16:12:03.950 ,0,1,0.,12.0,0.,12.0,0.,12.0,0.,12.0
1979-07-03 16:12:15.950 ,0,1,0.,12.0,0.,12.0,0.,12.0,0.,12.0
1979-07-03 16:12:27.950 ,0,0,0.,12.0,0.,12.0,0.,12.0,0.,12.0
1979-07-03 16:12:39.950 ,0,0,0.,12.0,0.,12.0,0.,12.0,0.,12.0
1979-07-03 16:12:51.950 ,0,1,0.,12.0,0.,12.0,0.,12.0,0.,12.0
1979-07-03 16:13:03.950 ,0,1,0.,12.0,0.,12.0,0.,12.0,0.,12.0
1979-07-03 16:13:15.950 ,0,0,0.,12.0,0.,12.0,0.,12.0,0.,12.0
1979-07-03 16:13:27.950 ,0,0,0.,12.0,0.,12.0,0.,12.0,0.,12.0
1979-07-03 16:13:39.950 ,1,1,0.,12.0,0.,12.0,0.,12.0,0.,12.0
1979-07-03 16:13:51.950 ,1,1,0.,12.0,0.,12.0,0.,12.0,0.,12.0
1979-07-03 16:14:03.950 ,1,0,0.,12.0,0.,12.0,0.,12.0,0.,12.0
1979-07-03 16:14:15.950 ,1,0,0.,12.0,0.,12.0,0.,12.0,0.,12.0
1979-07-03 16:14:27.950 ,2,1,0.,12.0,0.,12.0,0.,12.0,0.,12.0
1979-07-03 16:14:39.950 ,2,1,0.,12.0,0.,12.0,0.,12.0,0.,12.0
1979-07-03 16:14:51.950 ,2,0,0.,12.0,0.,12.0,0.,12.0,0.,12.0
1979-07-03 16:15:03.950 ,2,0,0.,12.0,0.,12.0,0.,12.0,0.,12.0
1979-07-03 16:15:15.950 ,3,1,0.,12.0,0.,12.0,0.,12.0,0.,12.0
1979-07-03 16:15:27.950 ,3,1,0.,12.0,0.,12.0,0.,12.0,0.,12.0
1979-07-03 16:15:39.950 ,3,0,0.,12.0,0.,12.0,0.,12.0,0.,12.0
1979-07-03 16:15:51.950 ,3,0,0.,12.0,0.,12.0,0.,12.0,0.,12.0
1979-07-03 16:16:03.950 ,4,1,0.,12.0,0.,12.0,0.,12.0,0.,12.0
1979-07-03 16:16:15.950 ,4,1,0.,12.0,0.,12.0,0.,12.0,0.,12.0
1979-07-03 16:16:27.950 ,4,0,0.,12.0,0.,12.0,0.,12.0,0.,12.0
1979-07-03 16:16:39.950 ,4,0,0.,12.0,0.,12.0,0.,12.0,0.,12.0
1979-07-03 16:16:51.950 ,5,1,0.,12.0,0.,12.0,0.,12.0,0.,12.0
1979-07-03 16:17:03.950 ,5,1,0.,12.0,0.,12.0,0.,12.0,0.,12.0
1979-07-03 16:17:15.950 ,5,0,0.,12.0,0.,12.0,0.,12.0,0.,12.0
1979-07-03 16:17:27.950 ,5,0,0.,12.0,0.,12.0,0.,12.0,1.,12.0
1979-07-03 16:17:39.950 ,6,1,0.,12.0,0.,12.0,0.,12.0,0.,12.0
1979-07-03 16:17:51.950 ,6,1,0.,12.0,0.,12.0,0.,12.0,0.,12.0
1979-07-03 16:18:03.950 ,6,0,0.,12.0,0.,12.0,0.,12.0,0.,12.0
1979-07-03 16:18:15.950 ,6,0,0.,12.0,0.,12.0,0.,12.0,0.,12.0
1979-07-03 16:18:27.950 ,7,0,0.,12.0,0.,12.0,0.,12.0,0.,12.0
1979-07-03 16:18:39.950 ,7,0,0.,12.0,0.,12.0,0.,12.0,0.,12.0
1979-07-03 16:18:51.950 ,7,0,0.,12.0,0.,12.0,0.,12.0,0.,12.0
1979-07-03 16:19:03.950 ,7,0,0.,12.0,0.,12.0,0.,12.0,0.,12.0
1979-07-03 16:19:15.950 ,4,1,0.,12.0,0.,12.0,0.,12.0,0.,12.0
1979-07-03 16:19:27.950 ,4,1,0.,12.0,0.,12.0,0.,12.0,0.,12.0
1979-07-03 16:19:39.950 ,0,1,0.,12.0,0.,12.0,0.,12.0,0.,12.0
1979-07-03 16:19:51.950 ,0,1,0.,12.0,0.,12.0,0.,12.0,0.,12.0
1979-07-03 16:20:03.950 ,3,1,0.,12.0,0.,12.0,0.,12.0,0.,12.0
1979-07-03 16:20:15.950 ,3,1,0.,12.0,0.,12.0,0.,12.0,0.,12.0
1979-07-03 16:20:27.950 ,7,1,0.,12.0,0.,12.0,0.,12.0,0.,12.0
1979-07-03 16:20:39.950 ,7,1,0.,12.0,0.,12.0,0.,12.0,0.,12.0
1979-07-03 16:20:51.950 ,4,1,0.,12.0,0.,12.0,0.,12.0,0.,12.0
1979-07-03 16:21:03.950 ,4,1,0.,12.0,0.,12.0,0.,12.0,0.,12.0
1979-07-03 16:21:15.950 ,0,1,0.,12.0,0.,12.0,0.,12.0,0.,12.0
1979-07-03 16:21:27.950 ,0,1,0.,12.0,0.,12.0,0.,12.0,0.,12.0
1979-07-03 16:21:39.950 ,3,1,0.,12.0,0.,12.0,0.,12.0,0.,12.0
1979-07-03 16:21:51.950 ,3,1,0.,12.0,0.,12.0,0.,12.0,0.,12.0
1979-07-03 16:22:03.950 ,7,1,0.,12.0,0.,12.0,0.,12.0,0.,12.0
1979-07-03 16:22:15.950 ,7,1,0.,12.0,0.,12.0,0.,12.0,0.,12.0
1979-07-03 16:22:27.950 ,4,1,0.,12.0,0.,12.0,0.,12.0,0.,12.0
1979-07-03 16:22:39.950 ,4,1,0.,12.0,0.,12.0,0.,12.0,0.,12.0
1979-07-03 16:22:51.950 ,0,1,0.,12.0,0.,12.0,0.,12.0,0.,12.0
1979-07-03 16:23:03.950 ,0,1,0.,12.0,0.,12.0,0.,12.0,0.,12.0
1979-07-03 16:23:15.950 ,3,1,0.,12.0,0.,12.0,0.,12.0,0.,12.0
1979-07-03 16:23:27.950 ,3,1,0.,12.0,0.,12.0,0.,12.0,0.,12.0
1979-07-03 16:23:39.950 ,7,1,0.,12.0,0.,12.0,0.,12.0,0.,12.0
1979-07-03 16:23:51.950 ,7,1,0.,12.0,0.,12.0,0.,12.0,0.,12.0
1979-07-03 16:24:03.950 ,4,1,0.,12.0,0.,12.0,0.,12.0,0.,12.0
1979-07-03 16:24:15.950 ,4,1,0.,12.0,0.,12.0,0.,12.0,0.,12.0
1979-07-03 16:24:27.950 ,0,1,0.,12.0,0.,12.0,0.,12.0,0.,12.0
1979-07-03 16:24:39.950 ,0,1,0.,12.0,0.,12.0,0.,12.0,0.,12.0
1979-07-03 16:24:51.950 ,3,1,0.,12.0,0.,12.0,0.,12.0,0.,12.0
1979-07-03 16:25:03.950 ,3,1,0.,12.0,0.,12.0,0.,12.0,0.,12.0
1979-07-03 16:25:15.950 ,7,1,0.,12.0,0.,12.0,0.,12.0,0.,12.0
1979-07-03 16:25:27.950 ,7,1,0.,12.0,0.,12.0,0.,12.0,0.,12.0
1979-07-03 16:25:39.950 ,4,1,0.,12.0,0.,12.0,0.,12.0,0.,12.0
1979-07-03 16:25:51.950 ,4,1,0.,12.0,0.,12.0,0.,12.0,0.,12.0
1979-07-03 16:26:03.950 ,0,1,0.,12.0,0.,12.0,0.,12.0,0.,12.0
1979-07-03 16:26:15.950 ,0,1,0.,12.0,0.,12.0,0.,12.0,0.,12.0
1979-07-03 16:26:27.950 ,3,1,0.,12.0,0.,12.0,0.,12.0,0.,12.0
1979-07-03 16:26:39.950 ,3,1,0.,12.0,0.,12.0,0.,12.0,0.,12.0
1979-07-03 16:26:51.950 ,7,1,0.,12.0,0.,12.0,0.,12.0,0.,12.0
1979-07-03 16:27:03.950 ,7,1,0.,12.0,0.,12.0,0.,12.0,0.,12.0
1979-07-03 16:27:15.950 ,4,1,0.,12.0,0.,12.0,0.,12.0,0.,12.0
1979-07-03 16:27:27.950 ,4,1,0.,12.0,0.,12.0,0.,12.0,0.,12.0
1979-07-03 16:27:39.950 ,0,1,0.,12.0,0.,12.0,0.,12.0,0.,12.0
1979-07-03 16:27:51.950 ,0,1,0.,12.0,0.,12.0,0.,12.0,0.,12.0
1979-07-03 16:28:03.950 ,3,1,0.,12.0,0.,12.0,0.,12.0,0.,12.0
1979-07-03 16:28:15.950 ,3,1,0.,12.0,0.,12.0,0.,12.0,0.,12.0
1979-07-03 16:28:27.950 ,7,1,0.,12.0,0.,12.0,0.,12.0,0.,12.0
1979-07-03 16:28:39.950 ,7,1,0.,12.0,0.,12.0,0.,12.0,0.,12.0
1979-07-03 16:28:51.950 ,4,1,0.,12.0,0.,12.0,0.,12.0,0.,12.0
1979-07-03 16:29:03.950 ,4,1,0.,12.0,0.,12.0,0.,12.0,0.,12.0
1979-07-03 16:29:15.950 ,0,1,0.,12.0,0.,12.0,0.,12.0,0.,12.0
1979-07-03 16:29:27.950 ,0,1,0.,12.0,0.,12.0,0.,12.0,0.,12.0
1979-07-03 16:29:39.950 ,0,0,0.,12.0,0.,12.0,0.,12.0,0.,12.0
1979-07-03 16:29:51.950 ,0,0,0.,12.0,0.,12.0,0.,12.0,0.,12.0
1979-07-03 16:30:03.950 ,0,0,0.,12.0,0.,12.0,0.,12.0,0.,12.0
1979-07-03 16:30:15.950 ,0,0,0.,12.0,0.,12.0,0.,12.0,0.,12.0
1979-07-03 16:30:27.950 ,5,1,0.,12.0,0.,12.0,0.,12.0,0.,12.0
1979-07-03 16:30:39.950 ,5,1,0.,12.0,0.,12.0,0.,12.0,0.,12.0
1979-07-03 16:30:51.950 ,5,0,0.,12.0,0.,12.0,0.,12.0,0.,12.0
1979-07-03 16:31:03.950 ,5,0,0.,12.0,0.,12.0,0.,12.0,0.,12.0
1979-07-03 16:31:15.950 ,4,1,0.,12.0,0.,12.0,0.,12.0,0.,12.0
1979-07-03 16:31:27.950 ,4,1,0.,12.0,0.,12.0,0.,12.0,0.,12.0
1979-07-03 16:31:39.950 ,4,0,0.,12.0,0.,12.0,0.,12.0,0.,12.0
1979-07-03 16:31:51.950 ,4,0,0.,12.0,0.,12.0,0.,12.0,0.,12.0
1979-07-03 16:32:03.950 ,3,1,0.,12.0,0.,12.0,0.,12.0,0.,12.0
1979-07-03 16:32:15.950 ,3,1,0.,12.0,0.,12.0,0.,12.0,0.,12.0
1979-07-03 16:32:27.950 ,3,0,0.,12.0,0.,12.0,0.,12.0,0.,12.0
1979-07-03 16:32:39.950 ,3,0,0.,12.0,0.,12.0,0.,12.0,0.,12.0
1979-07-03 16:32:51.950 ,2,1,0.,12.0,0.,12.0,0.,12.0,0.,12.0
1979-07-03 16:33:03.950 ,2,1,0.,12.0,0.,12.0,0.,12.0,0.,12.0
1979-07-03 16:33:15.950 ,2,0,0.,12.0,0.,12.0,0.,12.0,0.,12.0
1979-07-03 16:33:27.950 ,2,0,0.,12.0,0.,12.0,0.,12.0,0.,12.0
1979-07-03 16:33:39.950 ,1,1,0.,12.0,0.,12.0,0.,12.0,0.,12.0
1979-07-03 16:33:51.950 ,1,1,0.,12.0,0.,12.0,0.,12.0,0.,12.0
1979-07-03 16:34:03.950 ,1,0,0.,12.0,0.,12.0,0.,12.0,0.,12.0
1979-07-03 16:34:15.950 ,1,0,0.,12.0,0.,12.0,0.,12.0,0.,12.0
1979-07-03 16:34:27.950 ,0,1,0.,12.0,0.,12.0,0.,12.0,0.,12.0
1979-07-03 16:34:39.950 ,0,1,0.,12.0,0.,12.0,0.,12.0,0.,12.0
1979-07-03 16:34:51.950 ,0,0,0.,12.0,0.,12.0,0.,12.0,0.,12.0
1979-07-03 16:35:03.950 ,0,0,0.,12.0,0.,12.0,0.,12.0,0.,12.0
1979-07-03 16:35:15.950 ,0,1,0.,12.0,0.,12.0,0.,12.0,0.,12.0
1979-07-03 16:35:27.950 ,0,1,0.,12.0,0.,12.0,0.,12.0,0.,12.0
1979-07-03 16:35:39.950 ,0,0,0.,12.0,0.,12.0,0.,12.0,0.,12.0
1979-07-03 16:35:51.950 ,0,0,0.,12.0,0.,12.0,0.,12.0,0.,12.0
1979-07-03 16:36:03.950 ,1,1,0.,12.0,0.,12.0,0.,12.0,0.,12.0
1979-07-03 16:36:15.950 ,1,1,0.,12.0,0.,12.0,0.,12.0,0.,12.0
1979-07-03 16:36:27.950 ,1,0,0.,12.0,0.,12.0,0.,12.0,0.,12.0
1979-07-03 16:36:39.950 ,1,0,0.,12.0,0.,12.0,0.,12.0,0.,12.0
1979-07-03 16:36:51.950 ,2,1,0.,12.0,0.,12.0,0.,12.0,0.,12.0
1979-07-03 16:37:03.950 ,2,1,0.,12.0,0.,12.0,0.,12.0,0.,12.0
1979-07-03 16:37:15.950 ,2,0,0.,12.0,0.,12.0,0.,12.0,0.,12.0
1979-07-03 16:37:27.950 ,2,0,0.,12.0,0.,12.0,0.,12.0,0.,12.0
1979-07-03 16:37:39.950 ,3,1,0.,12.0,0.,12.0,0.,12.0,0.,12.0
1979-07-03 16:37:51.950 ,3,1,0.,12.0,0.,12.0,0.,12.0,0.,12.0
1979-07-03 16:38:03.950 ,3,0,0.,12.0,0.,12.0,0.,12.0,0.,12.0
1979-07-03 16:38:15.950 ,3,0,0.,12.0,0.,12.0,0.,12.0,0.,12.0
1979-07-03 16:38:27.950 ,4,1,0.,12.0,0.,12.0,0.,12.0,0.,12.0
1979-07-03 16:38:39.950 ,4,1,0.,12.0,0.,12.0,0.,12.0,0.,12.0
1979-07-03 16:38:51.950 ,4,0,0.,12.0,0.,12.0,0.,12.0,0.,12.0
1979-07-03 16:39:03.950 ,4,0,0.,12.0,0.,12.0,0.,12.0,0.,12.0
1979-07-03 16:39:15.950 ,5,1,0.,12.0,0.,12.0,0.,12.0,0.,12.0
1979-07-03 16:39:27.950 ,5,1,0.,12.0,0.,12.0,0.,12.0,0.,12.0